Terug naar catalogus

ASBM-2

ActiefMilitairHEO
NORAD 60423·PAYLOAD·🇳🇴 Norway

Gelanceerd Aug 12, 2024 vanaf Vandenberg Space Force Base

Loading…

Volgende Passages (komende 24 uur)

TLE

VersSource: Space-Track

Epoch: Sep 8, 2026, 06:16 UTC

1 60423U 24143B   26251.26169309 -.00000040  00000-0  00000-0 0  9996
2 60423  62.9077  42.3116 5627340 269.4333  29.5032  1.50425200 12858

Volg ASBM-2 in realtime met AllMySat

Download on the App Store